Wellsville, NY

6:09 AM EDT on June 26, 2017 (GMT -0400)
Wellsville Municipal-Tarantine

Weather History for KELZ - March, 2012

Change the Weather History Date:

Wednesday, March 28, 2012

  Actual Average (KDSV) Record (KDSV)
Temperature  
Mean Temperature 56 °F -  
Max Temperature 72 °F 49 °F 82 °F (1989)
Min Temperature 41 °F 29 °F 6 °F (1959)
Degree Days  
Heating Degree Days 9    
Growing Degree Days 6 (Base 50)    
Moisture  
Dew Point 32 °F    
Average Humidity 52    
Maximum Humidity 87    
Minimum Humidity 23    
Precipitation  
Precipitation 0.03 in - - ()
Sea Level Pressure  
Sea Level Pressure 29.74 in    
Wind  
Wind Speed 15 mph (West)    
Max Wind Speed 34 mph    
Max Gust Speed 47 mph    
Visibility 10 miles    
Events Rain , Thunderstorm    
Averages and records for this station are not official NWS values.
T = Trace of Precipitation, MM = Missing Value Source: NWS Daily Summary

Daily Weather History Graph

Daily Weather History Graph

Search for Another Location

Airport or City:

Trip Planner

Search our weather history database for the weather conditions in past years. The results will help you decide how hot, cold, wet, or windy it might be!

Date:

Astronomy

Mar. 28, 2012 Rise Set
Actual Time 7:00 AM EDT 7:33 PM EDT
Civil Twilight 6:32 AM EDT 8:01 PM EDT
Nautical Twilight 5:59 AM EDT 8:35 PM EDT
Astronomical Twilight 5:25 AM EDT 9:09 PM EDT
Moon 10:10 AM EDT (3/28) 12:39 AM EDT (3/28)
Length of Visible Light 13h 29m
Length of Day
12h 33m
Waxing Crescent, 30% of the Moon is Illuminated
Mar 28
Waxing Crescent
Mar 30
First Quarter
Apr 6
Full
Apr 13
Last Quarter
Apr 21
New

Hourly Weather History & Observations

Time (EDT) Temp. Windchill Dew Point Humidity Pressure Visibility Wind Dir Wind Speed Gust Speed Precip Events Conditions
12:56 AM 44.1 °F 38.6 °F 8.1 °F 23% 29.98 in 10.0 mi SSW 10.4 mph 16.1 mph N/A   Clear
1:56 AM 45.0 °F 38.5 °F 9.0 °F 23% 29.96 in 10.0 mi SW 13.8 mph 19.6 mph N/A   Clear
2:56 AM 46.0 °F 40.2 °F 10.0 °F 23% 29.91 in 10.0 mi SW 12.7 mph 21.9 mph N/A   Clear
3:56 AM 46.9 °F - 10.9 °F 23% 29.88 in 10.0 mi SW 11.5 mph 19.6 mph N/A   Clear
4:56 AM 46.9 °F - 12.9 °F 25% 29.85 in 10.0 mi SW 15.0 mph 25.3 mph N/A   Clear
5:56 AM 50.0 °F - 17.1 °F 27% 29.81 in 10.0 mi SW 15.0 mph 27.6 mph N/A   Scattered Clouds
6:56 AM 51.1 °F - 19.9 °F 29% 29.78 in 10.0 mi SW 16.1 mph 24.2 mph 0.00 in   Overcast
7:56 AM 48.9 °F - 30.9 °F 50% 29.77 in 10.0 mi SW 16.1 mph 29.9 mph 0.00 in   Overcast
8:11 AM 46.4 °F 40.4 °F 32.0 °F 57% 29.75 in 10.0 mi WSW 13.8 mph 24.2 mph 0.00 in Rain , Thunderstorm Light Rain
8:33 AM 46.4 °F 40.4 °F 35.6 °F 66% 29.74 in 10.0 mi SW 13.8 mph 21.9 mph 0.00 in   Mostly Cloudy
8:56 AM 46.0 °F 41.9 °F 34.0 °F 63% 29.77 in 9.0 mi WSW 8.1 mph - 0.00 in Rain Light Rain
9:56 AM 48.0 °F - 35.1 °F 61% 29.74 in 10.0 mi SW 8.1 mph 23.0 mph 0.01 in   Mostly Cloudy
10:56 AM 55.0 °F - 39.9 °F 57% 29.70 in 10.0 mi WSW 16.1 mph 26.5 mph N/A   Clear
11:31 AM 59.0 °F - 41.0 °F 51% 29.67 in 10.0 mi West 15.0 mph 27.6 mph N/A   Partly Cloudy
11:56 AM 61.0 °F - 42.1 °F 50% 29.66 in 10.0 mi West 9.2 mph 21.9 mph N/A   Clear
12:56 PM 66.9 °F - 42.1 °F 40% 29.62 in 10.0 mi West 17.3 mph 39.1 mph N/A   Clear
1:56 PM 70.0 °F - 42.1 °F 36% 29.59 in 10.0 mi West 18.4 mph 29.9 mph N/A   Scattered Clouds
2:56 PM 70.0 °F - 36.0 °F 29% 29.57 in 10.0 mi West 25.3 mph 41.4 mph N/A   Scattered Clouds
3:56 PM 69.1 °F - 30.9 °F 24% 29.58 in 10.0 mi WNW 34.5 mph 43.7 mph N/A   Partly Cloudy
4:56 PM 66.0 °F - 35.1 °F 32% 29.61 in 10.0 mi WNW 29.9 mph 47.2 mph N/A   Partly Cloudy
5:56 PM 62.1 °F - 36.0 °F 38% 29.62 in 10.0 mi WNW 24.2 mph 39.1 mph N/A   Partly Cloudy
6:56 PM 59.0 °F - 37.9 °F 46% 29.65 in 10.0 mi WNW 23.0 mph 41.4 mph N/A   Mostly Cloudy
7:56 PM 52.0 °F - 39.0 °F 61% 29.70 in 10.0 mi NW 20.7 mph 33.4 mph N/A   Overcast
8:56 PM 46.9 °F - 39.9 °F 77% 29.75 in 8.0 mi NNW 12.7 mph 23.0 mph 0.00 in Rain Light Rain
9:25 PM 44.6 °F 36.9 °F 41.0 °F 87% 29.74 in 6.0 mi NW 18.4 mph 27.6 mph 0.01 in Rain Light Rain
9:33 PM 44.6 °F 37.8 °F 41.0 °F 87% 29.74 in 8.0 mi WNW 15.0 mph 27.6 mph 0.01 in Rain Light Rain
9:56 PM 45.0 °F 37.4 °F 39.0 °F 80% 29.76 in 10.0 mi WNW 18.4 mph 26.5 mph 0.01 in   Overcast
10:15 PM 44.6 °F 36.6 °F 39.2 °F 81% 29.75 in 9.0 mi WNW 19.6 mph 26.5 mph 0.00 in Rain Light Rain
10:39 PM 44.6 °F 36.4 °F 37.4 °F 76% 29.75 in 10.0 mi WNW 20.7 mph - 0.00 in Rain Light Rain
10:56 PM 43.0 °F 34.5 °F 37.9 °F 82% 29.77 in 10.0 mi WNW 19.6 mph 25.3 mph 0.01 in Rain Light Rain
11:15 PM 42.8 °F 34.8 °F 37.4 °F 81% 29.75 in 10.0 mi NW 17.3 mph 27.6 mph 0.00 in Rain Light Rain
11:56 PM 41.0 °F 32.8 °F 36.0 °F 82% 29.76 in 10.0 mi WNW 16.1 mph 24.2 mph 0.00 in   Overcast